Location: Bittkow
(50.3000°N, 19.0000°E)
Time: 14:37:56
(UTC+00:00)

Cosmos 2173 Rocket - Pass Details

Date: 19 September 2020
Orbit: 946 x 999 km, 83.0° (Epoch: 27 October)

Event Time Altitude Azimuth Distance (km) Brightness Sun altitude
Rises 03:04:20 0° 351° (N) 3,696 7.2 -13.6°
Reaches altitude 10° 03:06:52 10° 354° (N) 2,751 6.5 -13.2°
Maximum altitude 03:13:11 72° 78° (ENE) 1,046 4.4 -12.3°
Drops below altitude 10° 03:19:31 10° 163° (SSE) 2,760 6.4 -11.3°
Sets 03:22:04 0° 166° (SSE) 3,708 7.0 -10.9°
